When you browse on this site, cookies collect data to enhance your experience and personalize the content and advertising you see.
Visit our Privacy Policy to learn more. By continuing to use the site, you agree to this use of cookies and data.
  • In Deutschland
  • Länderverzeichnis
  • Für 7 Tage
  • Wassertemperatur
  • Satellitenkarten
  • Wetterkarte
  • Widgets
  • user-avatar
    Anmelden

    Stündliche Wetter Newcastle

    Heute, 18 Dezember, Dienstag

    Zeit Temperatur Niederschläge Wind Luftdruck Luftfeuchtigkeit
    00:00 +23°C° 0 mm 2 m/S 757 mmHg 92%
    01:00 +23°C° 0 mm 2 m/S 757 mmHg 95%
    02:00 +23°C° 0 mm 2 m/S 757 mmHg 95%
    03:00 +21°C° 0 mm 2 m/S 757 mmHg 96%
    04:00 +23°C° 0 mm 1 m/S 757 mmHg 97%
    05:00 +23°C° 0 mm 2 m/S 758 mmHg 94%
    06:00 +24°C° 0 mm 2 m/S 758 mmHg 91%
    07:00 +25°C° 0 mm 2 m/S 758 mmHg 87%
    08:00 +26°C° 0 mm 2 m/S 758 mmHg 83%
    09:00 +26°C° 0 mm 3 m/S 758 mmHg 80%
    10:00 +27°C° 0 mm 3 m/S 759 mmHg 76%
    11:00 +28°C° 0 mm 3 m/S 758 mmHg 72%
    12:00 +29°C° 0 mm 3 m/S 758 mmHg 68%
    13:00 +30°C° 0 mm 3 m/S 758 mmHg 65%
    14:00 +30°C° 0 mm 3 m/S 758 mmHg 64%
    15:00 +30°C° 0 mm 3 m/S 758 mmHg 64%
    16:00 +29°C° 0 mm 3 m/S 758 mmHg 67%
    17:00 +28°C° 0 mm 3 m/S 758 mmHg 74%
    18:00 +26°C° 0 mm 3 m/S 758 mmHg 81%
    19:00 +25°C° 0 mm 2 m/S 759 mmHg 88%
    20:00 +24°C° 0 mm 2 m/S 759 mmHg 91%
    21:00 +24°C° 0 mm 2 m/S 759 mmHg 94%
    22:00 +24°C° 0 mm 1 m/S 760 mmHg 97%
    23:00 +23°C° 0 mm 1 m/S 760 mmHg 97%

    Morgen, 19 Dezember, Mittwoch

    Zeit Temperatur Niederschläge Wind Luftdruck Luftfeuchtigkeit
    00:00 +23°C° 0 mm 2 m/S 759 mmHg 97%
    01:00 +23°C° 0 mm 2 m/S 759 mmHg 97%
    02:00 +23°C° 0 mm 2 m/S 759 mmHg 97%
    03:00 +23°C° 0 mm 1 m/S 759 mmHg 98%
    04:00 +23°C° 0 mm 1 m/S 759 mmHg 98%
    05:00 +24°C° 0 mm 1 m/S 759 mmHg 95%
    06:00 +24°C° 0 mm 1 m/S 759 mmHg 92%
    07:00 +25°C° 0 mm 1 m/S 760 mmHg 89%
    08:00 +27°C° 0 mm 1 m/S 759 mmHg 81%
    09:00 +29°C° 0 mm 1 m/S 759 mmHg 73%
    10:00 +30°C° 0 mm 1 m/S 759 mmHg 65%
    11:00 +30°C° 0 mm 2 m/S 759 mmHg 64%
    12:00 +30°C° 0 mm 2 m/S 758 mmHg 64%
    13:00 +30°C° 0 mm 3 m/S 758 mmHg 64%
    14:00 +30°C° 0 mm 3 m/S 758 mmHg 66%
    15:00 +30°C° 0 mm 3 m/S 757 mmHg 67%
    16:00 +30°C° 0 mm 3 m/S 757 mmHg 69%
    17:00 +28°C° 0.4 mm 3 m/S 757 mmHg 76%
    18:00 +27°C° 0.4 mm 3 m/S 757 mmHg 83%
    19:00 +25°C° 0.4 mm 3 m/S 757 mmHg 90%
    20:00 +25°C° 2.2 mm 3 m/S 757 mmHg 93%
    21:00 +24°C° 2.2 mm 3 m/S 758 mmHg 95%
    22:00 +24°C° 2.2 mm 2 m/S 758 mmHg 98%
    23:00 +24°C° 0.9 mm 3 m/S 758 mmHg 98%

    übermorgen, 20 Dezember, Donnerstag

    Zeit Temperatur Niederschläge Wind Luftdruck Luftfeuchtigkeit
    00:00 +24°C° 0.9 mm 3 m/S 757 mmHg 98%
    01:00 +24°C° 0.9 mm 3 m/S 756 mmHg 98%
    02:00 +23°C° 0 mm 2 m/S 756 mmHg 98%
    03:00 +23°C° 0 mm 2 m/S 756 mmHg 98%
    04:00 +23°C° 0 mm 1 m/S 756 mmHg 98%
    05:00 +24°C° 0 mm 1 m/S 756 mmHg 95%
    06:00 +25°C° 0 mm 1 m/S 755 mmHg 92%
    07:00 +26°C° 0 mm 1 m/S 755 mmHg 89%
    08:00 +29°C° 0 mm 1 m/S 755 mmHg 75%
    09:00 +32°C° 0 mm 1 m/S 755 mmHg 61%
    10:00 +35°C° 0 mm 1 m/S 754 mmHg 47%
    11:00 +38°C° 0 mm 2 m/S 754 mmHg 42%
    12:00 +40°C° 0 mm 4 m/S 753 mmHg 38%
    13:00 +42°C° 0 mm 5 m/S 752 mmHg 34%
    14:00 +41°C° 0.1 mm 5 m/S 751 mmHg 36%
    15:00 +41°C° 0.1 mm 5 m/S 750 mmHg 38%
    16:00 +40°C° 0.1 mm 6 m/S 750 mmHg 40%
    17:00 +38°C° 0.5 mm 6 m/S 749 mmHg 45%
    18:00 +36°C° 0.5 mm 7 m/S 749 mmHg 50%
    19:00 +34°C° 0.5 mm 8 m/S 748 mmHg 56%
    20:00 +33°C° 0 mm 7 m/S 748 mmHg 55%
    21:00 +33°C° 0 mm 6 m/S 749 mmHg 55%
    22:00 +32°C° 0 mm 5 m/S 749 mmHg 54%
    23:00 +29°C° 0 mm 5 m/S 749 mmHg 64%

    21 Dezember, Freitag

    Zeit Temperatur Niederschläge Wind Luftdruck Luftfeuchtigkeit
    00:00 +28°C° 0 mm 6 m/S 749 mmHg 75%
    01:00 +26°C° 0 mm 6 m/S 750 mmHg 85%
    02:00 +24°C° 0 mm 6 m/S 750 mmHg 86%
    03:00 +24°C° 0 mm 7 m/S 750 mmHg 87%
    04:00 +23°C° 0 mm 7 m/S 750 mmHg 88%
    05:00 +23°C° 0 mm 7 m/S 751 mmHg 85%
    06:00 +23°C° 0 mm 6 m/S 752 mmHg 81%
    07:00 +23°C° 0 mm 6 m/S 753 mmHg 78%
    08:00 +24°C° 0 mm 6 m/S 753 mmHg 73%
    09:00 +26°C° 0 mm 6 m/S 753 mmHg 69%
    10:00 +27°C° 0 mm 6 m/S 753 mmHg 64%
    11:00 +27°C° 0 mm 5 m/S 753 mmHg 63%
    12:00 +27°C° 0 mm 5 m/S 753 mmHg 62%
    13:00 +27°C° 0 mm 5 m/S 752 mmHg 60%
    14:00 +27°C° 0 mm 5 m/S 752 mmHg 60%
    15:00 +27°C° 0 mm 5 m/S 752 mmHg 60%
    16:00 +27°C° 0 mm 5 m/S 752 mmHg 60%
    17:00 +26°C° 0 mm 4 m/S 752 mmHg 68%
    18:00 +24°C° 0 mm 3 m/S 753 mmHg 75%
    19:00 +22°C° 0 mm 3 m/S 753 mmHg 82%
    20:00 +21°C° 0 mm 2 m/S 754 mmHg 86%
    21:00 +21°C° 0 mm 2 m/S 754 mmHg 89%
    22:00 +20°C° 0 mm 2 m/S 754 mmHg 92%
    23:00 +20°C° 0 mm 2 m/S 754 mmHg 93%

    22 Dezember, Samstag

    Zeit Temperatur Niederschläge Wind Luftdruck Luftfeuchtigkeit
    00:00 +19°C° 0 mm 2 m/S 754 mmHg 94%
    01:00 +19°C° 0 mm 2 m/S 754 mmHg 95%
    02:00 +19°C° 0 mm 3 m/S 754 mmHg 95%
    03:00 +19°C° 0 mm 3 m/S 754 mmHg 94%
    04:00 +19°C° 0 mm 3 m/S 754 mmHg 94%
    05:00 +20°C° 0 mm 3 m/S 754 mmHg 90%
    06:00 +21°C° 0 mm 4 m/S 755 mmHg 85%
    07:00 +21°C° 0 mm 4 m/S 755 mmHg 81%
    08:00 +22°C° 0.1 mm 5 m/S 756 mmHg 76%
    09:00 +23°C° 0.1 mm 5 m/S 756 mmHg 70%
    10:00 +24°C° 0.1 mm 6 m/S 756 mmHg 65%
    11:00 +26°C° 0.1 mm 6 m/S 756 mmHg 61%
    12:00 +26°C° 0.1 mm 7 m/S 756 mmHg 58%
    13:00 +27°C° 0.1 mm 7 m/S 756 mmHg 55%
    14:00 +26°C° 0.1 mm 7 m/S 756 mmHg 55%
    15:00 +24°C° 0.1 mm 7 m/S 757 mmHg 56%
    16:00 +24°C° 0.1 mm 7 m/S 757 mmHg 57%
    17:00 +23°C° 0 mm 7 m/S 758 mmHg 62%
    18:00 +21°C° 0 mm 6 m/S 759 mmHg 67%
    19:00 +20°C° 0 mm 5 m/S 759 mmHg 72%
    20:00 +19°C° 0 mm 5 m/S 760 mmHg 75%
    21:00 +17°C° 0 mm 5 m/S 760 mmHg 78%
    22:00 +17°C° 0 mm 5 m/S 761 mmHg 81%
    23:00 +17°C° 0 mm 4 m/S 761 mmHg 84%

    23 Dezember, Sonntag

    Zeit Temperatur Niederschläge Wind Luftdruck Luftfeuchtigkeit
    00:00 +17°C° 0 mm 4 m/S 761 mmHg 86%
    01:00 +15°C° 0 mm 4 m/S 761 mmHg 88%
    02:00 +15°C° 0.1 mm 4 m/S 761 mmHg 89%
    03:00 +15°C° 0.1 mm 4 m/S 761 mmHg 91%
    04:00 +15°C° 0.1 mm 4 m/S 762 mmHg 93%
    05:00 +17°C° 0.1 mm 4 m/S 762 mmHg 88%
    06:00 +18°C° 0.1 mm 4 m/S 763 mmHg 83%
    07:00 +20°C° 0.1 mm 4 m/S 763 mmHg 78%
    08:00 +21°C° 0.2 mm 4 m/S 764 mmHg 72%
    09:00 +22°C° 0.2 mm 4 m/S 764 mmHg 67%
    10:00 +23°C° 0.2 mm 4 m/S 764 mmHg 61%
    11:00 +25°C° 0.1 mm 4 m/S 764 mmHg 58%
    12:00 +25°C° 0.1 mm 4 m/S 763 mmHg 54%
    13:00 +26°C° 0.1 mm 5 m/S 763 mmHg 50%
    14:00 +26°C° 0 mm 5 m/S 763 mmHg 50%
    15:00 +26°C° 0 mm 4 m/S 763 mmHg 51%
    16:00 +25°C° 0 mm 4 m/S 763 mmHg 52%
    17:00 +22°C° 0 mm 4 m/S 763 mmHg 58%
    18:00 +21°C° 0 mm 3 m/S 764 mmHg 64%
    19:00 +19°C° 0 mm 3 m/S 764 mmHg 71%
    20:00 +18°C° 0 mm 2 m/S 765 mmHg 74%
    21:00 +17°C° 0 mm 2 m/S 765 mmHg 78%
    22:00 +16°C° 0 mm 2 m/S 766 mmHg 82%
    23:00 +15°C° 0 mm 2 m/S 765 mmHg 84%
    Mehr zeigen